Whitecourt,

1:50 AM MDT on June 24, 2017 (GMT -0600)
Whitecourt

Weather History for CYZU - January, 2013

Change the Weather History Date:

Wednesday, January 30, 2013

  Actual Average Record
Temperature  
Mean Temperature -12 °F -  
Max Temperature -5 °F 21 °F 50 °F (2009)
Min Temperature -20 °F 6 °F -23 °F (2008)
Degree Days  
Heating Degree Days 78    
Moisture  
Dew Point -16 °F    
Average Humidity 67    
Maximum Humidity 77    
Minimum Humidity 48    
Precipitation  
Precipitation 0.12 in - - ()
Sea Level Pressure  
Sea Level Pressure 30.36 in    
Wind  
Wind Speed 7 mph ()    
Max Wind Speed 14 mph    
Max Gust Speed -    
Visibility 7.0 miles    
Events Snow    
Averages and records for this station are not official NWS values.
T = Trace of Precipitation, MM = Missing Value Source: Averaged Metar Reports

Daily Weather History Graph

Daily Weather History Graph

Search for Another Location

Airport or City:

Trip Planner

Search our weather history database for the weather conditions in past years. The results will help you decide how hot, cold, wet, or windy it might be!

Date:

Astronomy

Jan. 30, 2013 Rise Set
Actual Time 8:33 AM MST 5:20 PM MST
Civil Twilight 7:54 AM MST 5:59 PM MST
Nautical Twilight 7:11 AM MST 6:42 PM MST
Astronomical Twilight 6:29 AM MST 7:24 PM MST
Moon 10:11 PM MST (1/30) 9:21 AM MST (1/30)
Length of Visible Light 10h 05m
Length of Day
8h 47m
Waning Gibbous, 87% of the Moon is Illuminated
Jan 30
Waning Gibbous
Feb 3
Last Quarter
Feb 10
New
Feb 17
First Quarter
Feb 25
Full

Hourly Weather History & Observations

Time (MST) Temp. Windchill Dew Point Humidity Pressure Visibility Wind Dir Wind Speed Gust Speed Precip Events Conditions
6:00 AM -7.6 °F -28.3 °F -16.6 °F 65% 30.25 in 6.0 mi WNW 13.8 mph - N/A Snow Light Snow
7:00 AM -9.4 °F -27.9 °F -18.4 °F 65% 30.29 in 3.0 mi WNW 10.4 mph - N/A Snow Light Snow
8:00 AM -9.4 °F -22.7 °F -18.4 °F 65% 30.32 in 10.0 mi WNW 5.8 mph - N/A Snow Light Snow
9:00 AM -11.2 °F -24.8 °F -20.2 °F 64% 30.34 in 3.0 mi WNW 5.8 mph - N/A Snow Light Snow
9:49 AM - - - N/A% - 2.0 mi West 5.8 mph - N/A   Unknown
10:00 AM -11.2 °F -24.8 °F -18.4 °F 70% 30.36 in 1.5 mi WNW 5.8 mph - N/A Snow Light Snow
11:00 AM -10 °F - -19 °F 48% 30.38 in 1 mi WNW 11.5 mph - - Snow Light Snow
11:00 AM -11.2 °F -31.1 °F -18.4 °F 70% 30.38 in 1.5 mi WNW 11.5 mph - N/A Snow Light Snow
12:00 PM -9.4 °F -28.9 °F -18.4 °F 65% 30.39 in 2.0 mi WNW 11.5 mph - N/A Snow Light Snow
1:00 PM -9.4 °F -25.6 °F -16.6 °F 71% 30.40 in 2.0 mi West 8.1 mph - N/A Snow Light Snow
2:00 PM -7.6 °F -20.6 °F -16.6 °F 65% 30.39 in 6.0 mi WNW 5.8 mph - N/A Snow Light Snow
3:00 PM -7.6 °F -20.6 °F -16.6 °F 65% 30.39 in 10.0 mi NW 5.8 mph - N/A Snow Light Snow
3:21 PM - - - N/A% - 2.0 mi NW 5.8 mph - N/A   Unknown
4:00 PM -7.6 °F -20.6 °F -14.8 °F 71% 30.39 in 2.0 mi NNW 5.8 mph - N/A Snow Light Snow
5:00 PM -7 °F - -14 °F 56% 30.39 in 10 mi Calm Calm - - Snow Light Snow
5:00 PM -5.8 °F - -14.8 °F 65% 30.39 in 10.0 mi Calm Calm - N/A Snow Light Snow
6:00 PM -5.8 °F - -14.8 °F 65% 30.39 in 15.0 mi SSE 2.3 mph - N/A Snow Light Snow
7:00 PM -5.8 °F -18.4 °F -13.0 °F 71% 30.38 in 15.0 mi East 5.8 mph - N/A Snow Light Snow
8:00 PM -5.8 °F -18.4 °F -13.0 °F 71% 30.38 in 15.0 mi East 5.8 mph - N/A Snow Light Snow
9:00 PM -5.8 °F -21.2 °F -11.2 °F 77% 30.36 in 15.0 mi East 8.1 mph - N/A Snow Light Snow
10:00 PM -5.8 °F -21.2 °F -11.2 °F 77% 30.36 in 15.0 mi East 8.1 mph - N/A Snow Light Snow